KB3YTV Weather Reports


time (UTC)temp
C
wind
direction
speed
KPH
gust
KPH
rain 1hr
cm
rain 24hr
cm
rain mn
cm
humidity
%
barometer
mb
20260504190030 22 255 4.8 14.5 0.00 0.00 0.00 42 1009.5
20260504184538 22 214 4.8 9.7 0.00 0.00 0.00 43 1009.7
20260504183036 21 263 3.2 17.7 0.00 0.00 0.00 43 1009.7
20260504181534 21 243 3.2 16.1 0.00 0.00 0.00 42 1010.0
20260504180033 21 270 3.2 16.1 0.00 0.00 0.00 42 1010.3
20260504174535 21 101 3.2 16.1 0.00 0.00 0.00 40 1010.4
20260504173035 21 236 4.8 19.3 0.00 0.00 0.00 43 1010.6
20260504171535 21 257 4.8 11.3 0.00 0.00 0.00 42 1010.8
20260504081539 1 0 0.0 0.0 0.00 0.00 0.00 86 1014.1
20260504044532 3 0 0.0 0.0 0.00 0.00 0.00 78 1013.7
20260504043046 3 0 0.0 0.0 0.00 0.00 0.00 79 1013.7
20260504041536 4 0 0.0 0.0 0.00 0.00 0.00 77 1013.7
20260504040036 5 0 0.0 0.0 0.00 0.00 0.00 76 1013.7
20260504034540 5 0 0.0 0.0 0.00 0.00 0.00 76 1013.5
20260504033034 5 0 0.0 1.6 0.00 0.00 0.00 76 1013.4
20260504031541 5 274 0.0 1.6 0.00 0.00 0.00 74 1013.3
20260504030050 5 0 0.0 0.0 0.00 0.00 0.00 74 1013.2
20260504024539 6 0 0.0 0.0 0.00 0.00 0.00 73 1013.2
20260504023035 6 0 0.0 0.0 0.00 0.00 0.00 71 1013.2
20260504021546 6 0 0.0 0.0 0.00 0.00 0.00 68 1013.2
20260504020041 7 0 0.0 1.6 0.00 0.00 0.00 65 1013.3
20260504014536 8 0 0.0 0.0 0.00 0.00 0.00 63 1013.3
20260504013037 8 0 0.0 0.0 0.00 0.00 0.00 62 1013.1
20260504011535 10 0 0.0 0.0 0.00 0.00 0.00 52 1013.0
20260504010034 11 0 0.0 0.0 0.00 0.00 0.00 51 1012.9
20260504004541 11 0 0.0 1.6 0.00 0.00 0.00 48 1012.8
20260504003033 12 280 0.0 1.6 0.00 0.00 0.00 46 1012.7
20260504001539 12 269 0.0 3.2 0.00 0.00 0.00 45 1012.5
20260504000035 13 274 1.6 8.0 0.00 0.00 0.00 42 1012.3
20260503234539 13 287 4.8 8.0 0.00 0.00 0.00 40 1012.1
20260503233041 14 277 3.2 8.0 0.00 0.00 0.00 39 1012.1
20260503231533 14 283 6.4 12.9 0.00 0.00 0.00 39 1012.1
20260503230056 15 283 6.4 12.9 0.00 0.00 0.00 39 1011.9
20260503224535 15 277 6.4 22.5 0.00 0.00 0.00 38 1011.9
20260503223036 15 291 6.4 12.9 0.00 0.00 0.00 38 1011.8
20260503221535 15 274 6.4 11.3 0.00 0.00 0.00 38 1011.8
20260503220038 15 279 9.7 25.7 0.00 0.00 0.00 36 1011.9
20260503214552 15 281 6.4 17.7 0.00 0.00 0.00 38 1011.8
20260503213035 15 290 6.4 11.3 0.00 0.00 0.00 38 1011.7
20260503211532 15 293 11.3 32.2 0.00 0.00 0.00 37 1011.6
20260503210035 15 296 6.4 19.3 0.00 0.00 0.00 37 1011.7
20260503204540 14 291 9.7 25.7 0.00 0.00 0.00 39 1011.6
20260503203035 15 299 8.0 20.9 0.00 0.00 0.00 38 1011.7
20260503201535 14 289 4.8 17.7 0.00 0.00 0.00 39 1011.8
20260503200035 15 300 8.0 16.1 0.00 0.00 0.00 39 1012.0
20260503194548 14 270 6.4 30.6 0.00 0.00 0.00 38 1012.0
20260503193034 14 274 4.8 11.3 0.00 0.00 0.00 35 1012.3
20260503191535 13 286 6.4 24.1 0.00 0.00 0.00 40 1012.4